| time (UTC) | temp F | wind direction | speed MPH | gust MPH | rain 1hr in | rain 24hr in | rain mn in | humidity % | barometer mb |
| 20260507023937 | 44 | 348 | 0.0 | 0.0 | 0.00 | 0.00 | 0.00 | 100 | 1012.6 |
| 20260507023437 | 44 | 348 | 0.0 | 0.0 | 0.00 | 0.00 | 0.00 | 100 | 1012.6 |
| 20260507022938 | 44 | 348 | 0.0 | 0.0 | 0.00 | 0.00 | 0.00 | 100 | 1012.6 |
| 20260507022408 | 44 | 348 | 0.0 | 0.0 | 0.00 | 0.00 | 0.00 | 100 | 1012.5 |
| 20260507021905 | 44 | 348 | 0.0 | 0.0 | 0.00 | 0.00 | 0.00 | 100 | 1012.6 |
| 20260507021341 | 45 | 348 | 0.0 | 0.0 | 0.00 | 0.00 | 0.00 | 100 | 1012.6 |
| 20260507020807 | 45 | 348 | 0.0 | 0.0 | 0.00 | 0.00 | 0.00 | 100 | 1012.5 |
| 20260507020306 | 45 | 348 | 0.0 | 0.0 | 0.00 | 0.00 | 0.00 | 3 | 1012.5 |
| 20260507015800 | 45 | 348 | 0.0 | 0.0 | 0.00 | 0.00 | 0.00 | 5 | 1012.4 |
| 20260507015239 | 45 | 348 | 0.0 | 0.0 | 0.00 | 0.00 | 0.00 | 8 | 1012.4 |
| 20260507014733 | 45 | 348 | 0.0 | 0.0 | 0.00 | 0.00 | 0.00 | 8 | 1012.3 |
| 20260507014231 | 46 | 348 | 0.0 | 0.0 | 0.00 | 0.00 | 0.00 | 8 | 1012.3 |
| 20260507013727 | 46 | 348 | 0.0 | 0.0 | 0.00 | 0.00 | 0.00 | 8 | 1012.2 |
| 20260507013229 | 46 | 348 | 0.0 | 0.0 | 0.00 | 0.00 | 0.00 | 9 | 1012.2 |
| 20260507012724 | 46 | 348 | 0.0 | 0.0 | 0.00 | 0.00 | 0.00 | 9 | 1012.2 |
| 20260507012224 | 46 | 348 | 0.0 | 0.0 | 0.00 | 0.00 | 0.00 | 10 | 1012.2 |
| 20260507011640 | 46 | 348 | 0.0 | 0.0 | 0.00 | 0.00 | 0.00 | 11 | 1012.3 |
| 20260507011119 | 46 | 348 | 0.0 | 0.0 | 0.00 | 0.00 | 0.00 | 12 | 1012.3 |
| 20260507010620 | 46 | 348 | 0.0 | 0.0 | 0.00 | 0.00 | 0.00 | 13 | 1012.2 |
| 20260507010056 | 46 | 348 | 0.0 | 0.0 | 0.00 | 0.00 | 0.00 | 13 | 1012.2 |
| 20260507005539 | 46 | 348 | 0.0 | 0.0 | 0.00 | 0.00 | 0.00 | 15 | 1012.3 |
| 20260507005032 | 46 | 190 | 0.0 | 0.0 | 0.00 | 0.00 | 0.00 | 15 | 1012.2 |
| 20260507004737 | 46 | 9 | 0.0 | 0.0 | 0.00 | 0.00 | 0.00 | 17 | 1012.2 |
| 20260507003945 | 46 | 9 | 0.0 | 0.0 | 0.00 | 0.00 | 0.00 | 17 | 1012.2 |
| 20260507003444 | 46 | 19 | 0.0 | 0.0 | 0.00 | 0.00 | 0.00 | 17 | 1012.2 |
| 20260507002941 | 47 | 22 | 0.0 | 0.0 | 0.00 | 0.00 | 0.00 | 17 | 1012.2 |
| 20260507002442 | 47 | 27 | 0.0 | 0.0 | 0.00 | 0.00 | 0.00 | 16 | 1012.1 |
| 20260507001904 | 47 | 18 | 0.0 | 0.0 | 0.00 | 0.00 | 0.00 | 16 | 1012.1 |
| 20260507001606 | 47 | 11 | 0.0 | 0.0 | 0.00 | 0.00 | 0.00 | 16 | 1012.1 |
| 20260507000837 | 47 | 11 | 0.0 | 0.0 | 0.00 | 0.00 | 0.00 | 15 | 1012.0 |
| 20260507000330 | 47 | 348 | 0.0 | 0.0 | 0.00 | 0.00 | 0.00 | 14 | 1012.0 |
| 20260506235332 | 47 | 18 | 0.0 | 0.0 | 0.00 | 0.00 | 0.00 | 14 | 1012.1 |
| 20260506234817 | 47 | 24 | 0.0 | 0.0 | 0.00 | 0.00 | 0.00 | 13 | 1012.1 |
| 20260506234325 | 47 | 355 | 0.0 | 0.0 | 0.00 | 0.00 | 0.00 | 12 | 1012.1 |
| 20260506234251 | 47 | 288 | 0.0 | 0.0 | 0.00 | 0.00 | 0.00 | 12 | 1012.2 |
| 20260506233516 | 47 | 337 | 0.0 | 0.0 | 0.00 | 0.00 | 0.00 | 12 | 1012.1 |
| 20260506232743 | 47 | 5 | 0.0 | 0.0 | 0.00 | 0.00 | 0.00 | 14 | 1012.1 |
| 20260506232239 | 47 | 5 | 0.0 | 0.0 | 0.00 | 0.00 | 0.00 | 14 | 1012.1 |
| 20260506231950 | 47 | 348 | 0.0 | 0.0 | 0.00 | 0.00 | 0.00 | 15 | 1012.1 |
| 20260506231233 | 47 | 5 | 0.0 | 1.0 | 0.00 | 0.00 | 0.00 | 15 | 1012.0 |
| 20260506230730 | 48 | 332 | 0.0 | 1.0 | 0.00 | 0.00 | 0.00 | 17 | 1012.0 |
| 20260506230223 | 48 | 13 | 0.0 | 1.0 | 0.00 | 0.00 | 0.00 | 17 | 1012.0 |
| 20260506225722 | 48 | 20 | 0.0 | 1.0 | 0.00 | 0.00 | 0.00 | 17 | 1012.0 |
| 20260506225214 | 48 | 30 | 0.0 | 0.0 | 0.00 | 0.00 | 0.00 | 17 | 1012.0 |
| 20260506224655 | 48 | 329 | 0.0 | 0.0 | 0.00 | 0.00 | 0.00 | 18 | 1012.0 |
| 20260506224156 | 48 | 346 | 0.0 | 0.0 | 0.00 | 0.00 | 0.00 | 19 | 1011.9 |
| 20260506223641 | 48 | 346 | 0.0 | 0.0 | 0.00 | 0.00 | 0.00 | 19 | 1011.9 |
| 20260506223136 | 48 | 5 | 0.0 | 1.0 | 0.00 | 0.00 | 0.00 | 21 | 1011.8 |
| 20260506222607 | 49 | 74 | 0.0 | 1.0 | 0.00 | 0.00 | 0.00 | 22 | 1011.9 |
| 20260506222107 | 49 | 13 | 0.0 | 0.0 | 0.00 | 0.00 | 0.00 | 24 | 1011.9 |
| 20260506221608 | 49 | 135 | 0.0 | 0.0 | 0.00 | 0.00 | 0.00 | 26 | 1011.8 |
| 20260506221108 | 49 | 326 | 0.0 | 0.0 | 0.00 | 0.00 | 0.00 | 29 | 1011.8 |
| 20260506220603 | 49 | 331 | 0.0 | 0.0 | 0.00 | 0.00 | 0.00 | 32 | 1011.7 |
| 20260506220056 | 49 | 270 | 0.0 | 0.0 | 0.00 | 0.00 | 0.00 | 35 | 1011.8 |
| 20260506215552 | 49 | 270 | 0.0 | 1.0 | 0.00 | 0.00 | 0.00 | 38 | 1011.8 |
| 20260506215051 | 49 | 355 | 0.0 | 1.0 | 0.00 | 0.00 | 0.00 | 40 | 1011.7 |
| 20260506214543 | 50 | 5 | 0.0 | 3.0 | 0.00 | 0.00 | 0.00 | 41 | 1011.6 |
| 20260506214305 | 50 | 17 | 0.0 | 0.0 | 0.00 | 0.00 | 0.00 | 45 | 1011.6 |
| 20260506213544 | 50 | 336 | 0.0 | 0.0 | 0.00 | 0.00 | 0.00 | 48 | 1011.5 |
| 20260506213040 | 50 | 342 | 0.0 | 0.0 | 0.00 | 0.00 | 0.00 | 52 | 1011.5 |
| 20260506212529 | 50 | 332 | 0.0 | 1.0 | 0.00 | 0.00 | 0.00 | 54 | 1011.4 |
| 20260506212024 | 51 | 283 | 0.0 | 1.0 | 0.00 | 0.00 | 0.00 | 56 | 1011.4 |
| 20260506211514 | 51 | 350 | 0.0 | 0.0 | 0.00 | 0.00 | 0.00 | 59 | 1011.4 |
| 20260506210955 | 51 | 355 | 0.0 | 0.0 | 0.00 | 0.00 | 0.00 | 60 | 1011.3 |
| 20260506210452 | 51 | 32 | 0.0 | 2.0 | 0.00 | 0.00 | 0.00 | 61 | 1011.3 |
| 20260506205944 | 51 | 212 | 0.0 | 2.0 | 0.00 | 0.00 | 0.00 | 61 | 1011.2 |
| 20260506205438 | 51 | 329 | 0.0 | 0.0 | 0.00 | 0.00 | 0.00 | 62 | 1011.2 |
| 20260506204919 | 51 | 30 | 0.0 | 2.0 | 0.00 | 0.00 | 0.00 | 62 | 1011.2 |
| 20260506204419 | 51 | 283 | 0.0 | 2.0 | 0.00 | 0.00 | 0.00 | 62 | 1011.1 |
| 20260506203919 | 51 | 151 | 0.0 | 1.0 | 0.00 | 0.00 | 0.00 | 62 | 1011.1 |
| 20260506203909 | 52 | 255 | 0.0 | 0.0 | 0.00 | 0.00 | 0.00 | 62 | 1011.1 |
| 20260506202919 | 52 | 0 | 0.0 | 0.0 | 0.00 | 0.00 | 0.00 | 62 | 1011.0 |
| 20260506202416 | 52 | 34 | 0.0 | 0.0 | 0.00 | 0.00 | 0.00 | 62 | 1011.0 |
| 20260506201903 | 52 | 78 | 0.0 | 0.0 | 0.00 | 0.00 | 0.00 | 62 | 1010.9 |
| 20260506201403 | 52 | 350 | 0.0 | 0.0 | 0.00 | 0.00 | 0.00 | 62 | 1010.9 |
| 20260506201323 | 53 | 350 | 0.0 | 0.0 | 0.00 | 0.00 | 0.00 | 62 | 1010.9 |
| 20260506200335 | 53 | 350 | 0.0 | 0.0 | 0.00 | 0.00 | 0.00 | 62 | 1010.9 |
| 20260506195831 | 53 | 109 | 0.0 | 1.0 | 0.00 | 0.00 | 0.00 | 62 | 1010.7 |
| 20260506195331 | 53 | 265 | 0.0 | 1.0 | 0.00 | 0.00 | 0.00 | 62 | 1010.7 |
| 20260506194834 | 53 | 346 | 0.0 | 1.0 | 0.00 | 0.00 | 0.00 | 62 | 1010.6 |
| 20260506194331 | 53 | 279 | 0.0 | 1.0 | 0.00 | 0.00 | 0.00 | 62 | 1010.6 |
| 20260506194044 | 53 | 344 | 0.0 | 1.0 | 0.00 | 0.00 | 0.00 | 62 | 1010.5 |
| 20260506193321 | 53 | 254 | 0.0 | 0.0 | 0.00 | 0.00 | 0.00 | 62 | 1010.5 |
| 20260506193035 | 54 | 109 | 0.0 | 0.0 | 0.00 | 0.00 | 0.00 | 62 | 1010.4 |
| 20260506192311 | 54 | 133 | 0.0 | 2.0 | 0.00 | 0.00 | 0.00 | 62 | 1010.3 |
| 20260506192034 | 54 | 355 | 0.0 | 2.0 | 0.00 | 0.00 | 0.00 | 62 | 1010.3 |
| 20260506191308 | 54 | 307 | 0.0 | 0.0 | 0.00 | 0.00 | 0.00 | 62 | 1010.1 |
| 20260506190749 | 54 | 324 | 0.0 | 3.0 | 0.00 | 0.00 | 0.00 | 61 | 1010.0 |
| 20260506190234 | 55 | 355 | 0.0 | 3.0 | 0.00 | 0.00 | 0.00 | 61 | 1009.9 |
| 20260506185728 | 55 | 351 | 0.0 | 4.0 | 0.00 | 0.00 | 0.00 | 61 | 1009.8 |
| 20260506185227 | 55 | 313 | 0.0 | 4.0 | 0.00 | 0.00 | 0.00 | 61 | 1009.8 |
| 20260506184727 | 55 | 287 | 0.0 | 2.0 | 0.00 | 0.00 | 0.00 | 61 | 1009.7 |
| 20260506184435 | 55 | 347 | 0.0 | 1.0 | 0.00 | 0.00 | 0.00 | 61 | 1009.6 |
| 20260506183710 | 55 | 333 | 0.0 | 3.0 | 0.00 | 0.00 | 0.00 | 61 | 1009.6 |
| 20260506183151 | 56 | 348 | 0.0 | 3.0 | 0.00 | 0.00 | 0.00 | 61 | 1009.6 |
| 20260506182909 | 56 | 331 | 0.0 | 2.0 | 0.00 | 0.00 | 0.00 | 61 | 1009.5 |
| 20260506182147 | 56 | 19 | 0.0 | 2.0 | 0.00 | 0.00 | 0.00 | 61 | 1009.5 |
| 20260506181644 | 56 | 43 | 0.0 | 2.0 | 0.00 | 0.00 | 0.00 | 61 | 1009.4 |
| 20260506181404 | 56 | 327 | 0.0 | 1.0 | 0.00 | 0.00 | 0.00 | 61 | 1009.4 |
| 20260506180643 | 56 | 351 | 0.0 | 1.0 | 0.00 | 0.00 | 0.00 | 61 | 1009.3 |
| 20260506180132 | 56 | 348 | 0.0 | 5.0 | 0.00 | 0.00 | 0.00 | 61 | 1009.3 |
| 20260506175603 | 56 | 355 | 0.0 | 5.0 | 0.00 | 0.00 | 0.00 | 61 | 1009.3 |
| 20260506175103 | 56 | 355 | 0.0 | 1.0 | 0.00 | 0.00 | 0.00 | 61 | 1009.2 |
| 20260506174559 | 55 | 208 | 0.0 | 1.0 | 0.00 | 0.00 | 0.00 | 62 | 1009.1 |
| 20260506174048 | 55 | 17 | 0.0 | 1.0 | 0.00 | 0.00 | 0.00 | 61 | 1009.0 |
| 20260506173547 | 55 | 76 | 0.0 | 1.0 | 0.00 | 0.00 | 0.00 | 61 | 1009.0 |
| 20260506173046 | 55 | 350 | 0.0 | 0.0 | 0.00 | 0.00 | 0.00 | 61 | 1009.0 |
| 20260506172536 | 56 | 355 | 0.0 | 0.0 | 0.00 | 0.00 | 0.00 | 61 | 1008.9 |
| 20260506172031 | 56 | 355 | 0.0 | 0.0 | 0.00 | 0.00 | 0.00 | 61 | 1008.9 |
| 20260506171527 | 56 | 329 | 0.0 | 0.0 | 0.00 | 0.00 | 0.00 | 61 | 1008.9 |
| 20260506171018 | 56 | 294 | 0.0 | 0.0 | 0.00 | 0.00 | 0.00 | 60 | 1008.9 |
| 20260506170521 | 56 | 258 | 0.0 | 3.0 | 0.00 | 0.00 | 0.00 | 60 | 1008.8 |
| 20260506170022 | 56 | 215 | 0.0 | 3.0 | 0.00 | 0.00 | 0.00 | 60 | 1008.8 |
| 20260506165506 | 56 | 277 | 0.0 | 2.0 | 0.00 | 0.00 | 0.00 | 59 | 1008.7 |
| 20260506164952 | 56 | 330 | 0.0 | 2.0 | 0.00 | 0.00 | 0.00 | 59 | 1008.7 |
| 20260506164443 | 57 | 297 | 0.0 | 0.0 | 0.00 | 0.00 | 0.00 | 59 | 1008.7 |
| 20260506163936 | 57 | 296 | 0.0 | 0.0 | 0.00 | 0.00 | 0.00 | 58 | 1008.6 |
| 20260506163658 | 57 | 285 | 0.0 | 0.0 | 0.00 | 0.00 | 0.00 | 58 | 1008.6 |
| 20260506162925 | 57 | 309 | 0.0 | 0.0 | 0.00 | 0.00 | 0.00 | 57 | 1008.6 |
| 20260506162416 | 57 | 309 | 0.0 | 0.0 | 0.00 | 0.00 | 0.00 | 56 | 1008.5 |
| 20260506161914 | 57 | 250 | 0.0 | 0.0 | 0.00 | 0.00 | 0.00 | 56 | 1008.5 |
| 20260506161416 | 58 | 20 | 0.0 | 0.0 | 0.00 | 0.00 | 0.00 | 56 | 1008.5 |
| 20260506160912 | 58 | 319 | 0.0 | 0.0 | 0.00 | 0.00 | 0.00 | 55 | 1008.5 |
| 20260506160359 | 58 | 226 | 0.0 | 1.0 | 0.00 | 0.00 | 0.00 | 55 | 1008.5 |
| 20260506155847 | 58 | 284 | 0.0 | 1.0 | 0.00 | 0.00 | 0.00 | 54 | 1008.5 |
| 20260506155600 | 58 | 273 | 0.0 | 0.0 | 0.00 | 0.00 | 0.00 | 54 | 1008.5 |
| 20260506154808 | 58 | 246 | 0.0 | 0.0 | 0.00 | 0.00 | 0.00 | 55 | 1008.5 |
| 20260506154309 | 58 | 348 | 0.0 | 1.0 | 0.00 | 0.00 | 0.00 | 53 | 1008.6 |
| 20260506153747 | 58 | 252 | 0.0 | 1.0 | 0.00 | 0.00 | 0.00 | 54 | 1008.6 |
| 20260506153247 | 58 | 249 | 0.0 | 1.0 | 0.00 | 0.00 | 0.00 | 54 | 1008.5 |
| 20260506152747 | 58 | 279 | 0.0 | 1.0 | 0.00 | 0.00 | 0.00 | 53 | 1008.5 |
| 20260506152245 | 58 | 286 | 0.0 | 1.0 | 0.00 | 0.00 | 0.00 | 52 | 1008.4 |
| 20260506151744 | 58 | 284 | 0.0 | 1.0 | 0.00 | 0.00 | 0.00 | 52 | 1008.4 |
| 20260506151238 | 58 | 296 | 0.0 | 0.0 | 0.00 | 0.00 | 0.00 | 50 | 1008.4 |
| 20260506150742 | 58 | 309 | 0.0 | 0.0 | 0.00 | 0.00 | 0.00 | 50 | 1008.3 |
| 20260506150220 | 58 | 215 | 0.0 | 0.0 | 0.00 | 0.00 | 0.00 | 50 | 1008.4 |
| 20260506145648 | 58 | 318 | 0.0 | 1.0 | 0.00 | 0.00 | 0.00 | 50 | 1008.4 |
| 20260506145139 | 58 | 239 | 0.0 | 0.0 | 0.00 | 0.00 | 0.00 | 50 | 1008.3 |
| 20260506144640 | 58 | 240 | 0.0 | 4.0 | 0.00 | 0.00 | 0.00 | 49 | 1008.4 |
| 20260506144140 | 59 | 251 | 0.0 | 4.0 | 0.00 | 0.00 | 0.00 | 48 | 1008.4 |
| 20260506143638 | 59 | 344 | 0.0 | 0.0 | 0.00 | 0.00 | 0.00 | 49 | 1008.3 |
| 20260506143132 | 59 | 348 | 0.0 | 2.0 | 0.00 | 0.00 | 0.00 | 47 | 1008.2 |
| 20260506142610 | 60 | 296 | 0.0 | 2.0 | 0.00 | 0.00 | 0.00 | 48 | 1008.3 |
| 20260506142110 | 60 | 317 | 0.0 | 0.0 | 0.00 | 0.00 | 0.00 | 48 | 1008.2 |
| 20260506141555 | 60 | 225 | 0.0 | 0.0 | 0.00 | 0.00 | 0.00 | 48 | 1008.3 |
| 20260506141048 | 60 | 227 | 0.0 | 0.0 | 0.00 | 0.00 | 0.00 | 49 | 1008.2 |
| 20260506140539 | 60 | 200 | 0.0 | 0.0 | 0.00 | 0.00 | 0.00 | 45 | 1008.2 |
| 20260506140033 | 60 | 80 | 0.0 | 0.0 | 0.00 | 0.00 | 0.00 | 46 | 1008.2 |
| 20260506135746 | 60 | 294 | 0.0 | 4.0 | 0.00 | 0.00 | 0.00 | 48 | 1008.2 |
| 20260506135011 | 60 | 306 | 0.0 | 6.0 | 0.00 | 0.00 | 0.00 | 45 | 1008.2 |
| 20260506134724 | 60 | 244 | 0.0 | 6.0 | 0.00 | 0.00 | 0.00 | 44 | 1008.2 |
| 20260506134000 | 61 | 314 | 0.0 | 4.0 | 0.00 | 0.00 | 0.00 | 45 | 1008.2 |
| 20260506133443 | 61 | 220 | 0.0 | 4.0 | 0.00 | 0.00 | 0.00 | 43 | 1008.2 |
| 20260506132944 | 62 | 268 | 0.0 | 1.0 | 0.00 | 0.00 | 0.00 | 46 | 1008.2 |
| 20260506132434 | 62 | 156 | 0.0 | 1.0 | 0.00 | 0.00 | 0.00 | 47 | 1008.1 |
| 20260506131924 | 62 | 211 | 0.0 | 4.0 | 0.00 | 0.00 | 0.00 | 48 | 1008.0 |
| 20260506131423 | 62 | 235 | 0.0 | 4.0 | 0.00 | 0.00 | 0.00 | 46 | 1008.0 |
| 20260506130923 | 61 | 294 | 0.0 | 2.0 | 0.00 | 0.00 | 0.00 | 48 | 1008.2 |
| 20260506130422 | 61 | 297 | 0.0 | 1.0 | 0.00 | 0.00 | 0.00 | 48 | 1008.1 |
| 20260506125920 | 61 | 17 | 0.0 | 1.0 | 0.00 | 0.00 | 0.00 | 49 | 1008.0 |
| 20260506125416 | 61 | 204 | 0.0 | 1.0 | 0.00 | 0.00 | 0.00 | 49 | 1008.0 |
| 20260506124908 | 61 | 271 | 0.0 | 1.0 | 0.00 | 0.00 | 0.00 | 51 | 1008.0 |
| 20260506124408 | 60 | 343 | 0.0 | 1.0 | 0.00 | 0.00 | 0.00 | 49 | 1008.0 |
| 20260506123847 | 61 | 279 | 0.0 | 3.0 | 0.00 | 0.00 | 0.00 | 51 | 1008.1 |
| 20260506123346 | 60 | 177 | 0.0 | 3.0 | 0.00 | 0.00 | 0.00 | 49 | 1008.0 |
| 20260506122847 | 60 | 242 | 0.0 | 0.0 | 0.00 | 0.00 | 0.00 | 50 | 1008.1 |
| 20260506122349 | 60 | 319 | 0.0 | 1.0 | 0.00 | 0.00 | 0.00 | 50 | 1008.0 |
| 20260506121843 | 60 | 257 | 0.0 | 2.0 | 0.00 | 0.00 | 0.00 | 51 | 1007.9 |
| 20260506121336 | 60 | 315 | 0.0 | 2.0 | 0.00 | 0.00 | 0.00 | 51 | 1008.0 |
| 20260506120836 | 60 | 344 | 0.0 | 3.0 | 0.00 | 0.00 | 0.00 | 51 | 1007.9 |
| 20260506120336 | 60 | 335 | 0.0 | 7.0 | 0.00 | 0.00 | 0.00 | 50 | 1007.9 |
| 20260506115835 | 60 | 329 | 0.0 | 7.0 | 0.00 | 0.00 | 0.00 | 49 | 1007.9 |
| 20260506115557 | 60 | 260 | 0.0 | 2.0 | 0.00 | 0.00 | 0.00 | 52 | 1007.8 |
| 20260506114835 | 60 | 262 | 0.0 | 1.0 | 0.00 | 0.00 | 0.00 | 50 | 1007.9 |
| 20260506114327 | 60 | 322 | 0.0 | 3.0 | 0.00 | 0.00 | 0.00 | 52 | 1007.9 |
| 20260506113828 | 60 | 12 | 0.0 | 4.0 | 0.00 | 0.00 | 0.00 | 53 | 1007.9 |
| 20260506113315 | 60 | 232 | 0.0 | 4.0 | 0.00 | 0.00 | 0.00 | 51 | 1008.0 |
| 20260506112811 | 60 | 253 | 0.0 | 3.0 | 0.00 | 0.00 | 0.00 | 51 | 1008.0 |
| 20260506112311 | 60 | 281 | 0.0 | 3.0 | 0.00 | 0.00 | 0.00 | 51 | 1007.9 |
| 20260506111813 | 60 | 331 | 0.0 | 1.0 | 0.00 | 0.00 | 0.00 | 53 | 1008.0 |
| 20260506111537 | 59 | 336 | 0.0 | 3.0 | 0.00 | 0.00 | 0.00 | 55 | 1007.8 |
| 20260506110746 | 59 | 281 | 0.0 | 3.0 | 0.00 | 0.00 | 0.00 | 53 | 1007.9 |
| 20260506110243 | 58 | 265 | 0.0 | 1.0 | 0.00 | 0.00 | 0.00 | 55 | 1007.9 |
| 20260506105740 | 58 | 282 | 0.0 | 3.0 | 0.00 | 0.00 | 0.00 | 55 | 1007.8 |
| 20260506105237 | 58 | 46 | 0.0 | 6.0 | 0.00 | 0.00 | 0.00 | 57 | 1007.9 |
| 20260506104736 | 58 | 296 | 0.0 | 6.0 | 0.00 | 0.00 | 0.00 | 59 | 1008.0 |
| 20260506104235 | 58 | 350 | 0.0 | 4.0 | 0.00 | 0.00 | 0.00 | 59 | 1007.9 |
| 20260506103735 | 58 | 350 | 0.0 | 3.0 | 0.00 | 0.00 | 0.00 | 61 | 1007.8 |
| 20260506103236 | 58 | 315 | 0.0 | 3.0 | 0.00 | 0.00 | 0.00 | 61 | 1007.7 |
| 20260506102727 | 58 | 329 | 0.0 | 1.0 | 0.00 | 0.00 | 0.00 | 61 | 1007.7 |
| 20260506102226 | 58 | 95 | 0.0 | 5.0 | 0.00 | 0.00 | 0.00 | 61 | 1007.8 |
| 20260506101729 | 57 | 315 | 0.0 | 5.0 | 0.00 | 0.00 | 0.00 | 60 | 1007.9 |
| 20260506101214 | 57 | 344 | 0.0 | 1.0 | 0.00 | 0.00 | 0.00 | 61 | 1007.8 |
| 20260506100708 | 57 | 340 | 0.0 | 2.0 | 0.00 | 0.00 | 0.00 | 61 | 1007.9 |
| 20260506100209 | 57 | 317 | 0.0 | 2.0 | 0.00 | 0.00 | 0.00 | 61 | 1007.7 |
| 20260506095654 | 57 | 9 | 0.0 | 2.0 | 0.00 | 0.00 | 0.00 | 62 | 1007.8 |
| 20260506095147 | 57 | 250 | 0.0 | 3.0 | 0.00 | 0.00 | 0.00 | 62 | 1007.7 |
| 20260506094643 | 57 | 323 | 0.0 | 3.0 | 0.00 | 0.00 | 0.00 | 62 | 1007.7 |
| 20260506094145 | 57 | 55 | 0.0 | 1.0 | 0.00 | 0.00 | 0.00 | 61 | 1007.6 |
| 20260506094123 | 57 | 328 | 0.0 | 1.0 | 0.00 | 0.00 | 0.00 | 61 | 1007.6 |
| 20260506093143 | 57 | 5 | 0.0 | 1.0 | 0.00 | 0.00 | 0.00 | 60 | 1007.6 |
| 20260506092640 | 57 | 355 | 0.0 | 1.0 | 0.00 | 0.00 | 0.00 | 58 | 1007.5 |
| 20260506092139 | 56 | 241 | 0.0 | 4.0 | 0.00 | 0.00 | 0.00 | 55 | 1007.6 |
| 20260506091635 | 56 | 267 | 0.0 | 4.0 | 0.00 | 0.00 | 0.00 | 59 | 1007.6 |
| 20260506091131 | 56 | 257 | 0.0 | 2.0 | 0.00 | 0.00 | 0.00 | 59 | 1007.7 |
| 20260506090850 | 56 | 355 | 0.0 | 2.0 | 0.00 | 0.00 | 0.00 | 60 | 1007.6 |
| 20260506090132 | 56 | 209 | 0.0 | 1.0 | 0.00 | 0.00 | 0.00 | 59 | 1007.6 |
| 20260506085627 | 56 | 5 | 0.0 | 1.0 | 0.00 | 0.00 | 0.00 | 57 | 1007.5 |
| 20260506085126 | 56 | 231 | 0.0 | 1.0 | 0.00 | 0.00 | 0.00 | 51 | 1007.5 |
| 20260506084603 | 55 | 338 | 0.0 | 3.0 | 0.00 | 0.00 | 0.00 | 51 | 1007.4 |
| 20260506084059 | 55 | 308 | 0.0 | 3.0 | 0.00 | 0.00 | 0.00 | 52 | 1007.5 |
| 20260506083557 | 55 | 339 | 0.0 | 1.0 | 0.00 | 0.00 | 0.00 | 51 | 1007.5 |
| 20260506083050 | 55 | 5 | 0.0 | 2.0 | 0.00 | 0.00 | 0.00 | 48 | 1007.5 |
| 20260506082540 | 55 | 336 | 0.0 | 3.0 | 0.00 | 0.00 | 0.00 | 43 | 1007.4 |
| 20260506082307 | 55 | 201 | 0.0 | 3.0 | 0.00 | 0.00 | 0.00 | 42 | 1007.4 |
| 20260506081536 | 55 | 209 | 0.0 | 1.0 | 0.00 | 0.00 | 0.00 | 44 | 1007.4 |
| 20260506081251 | 54 | 248 | 0.0 | 2.0 | 0.00 | 0.00 | 0.00 | 46 | 1007.5 |
| 20260506080536 | 54 | 266 | 0.0 | 2.0 | 0.00 | 0.00 | 0.00 | 43 | 1007.4 |
| 20260506073032 | 54 | 284 | 0.0 | 1.0 | 0.00 | 0.00 | 0.00 | 28 | 1007.2 |
| 20260506072531 | 54 | 240 | 0.0 | 6.0 | 0.00 | 0.00 | 0.00 | 28 | 1007.2 |
| 20260506072027 | 54 | 339 | 0.0 | 6.0 | 0.00 | 0.00 | 0.00 | 25 | 1007.1 |
| 20260506071520 | 54 | 213 | 0.0 | 2.0 | 0.00 | 0.00 | 0.00 | 24 | 1007.1 |
| 20260506071008 | 53 | 300 | 0.0 | 3.0 | 0.00 | 0.00 | 0.00 | 25 | 1007.2 |
| 20260506070507 | 53 | 288 | 0.0 | 3.0 | 0.00 | 0.00 | 0.00 | 28 | 1007.2 |
| 20260506062436 | 52 | 336 | 0.0 | 1.0 | 0.00 | 0.00 | 0.00 | 4 | 1007.1 |
| 20260506061937 | 52 | 191 | 0.0 | 2.0 | 0.00 | 0.00 | 0.00 | 4 | 1007.0 |
| 20260506061701 | 52 | 228 | 0.0 | 3.0 | 0.00 | 0.00 | 0.00 | 2 | 1007.0 |
| 20260506060937 | 52 | 9 | 0.0 | 3.0 | 0.00 | 0.00 | 0.00 | 1 | 1007.0 |
| 20260506060414 | 51 | 9 | 0.0 | 0.0 | 0.00 | 0.00 | 0.00 | 1 | 1006.9 |
| 20260506051304 | 51 | 345 | 0.0 | 1.0 | 0.00 | 0.00 | 0.00 | 13 | 1006.9 |
| 20260506050804 | 51 | 0 | 0.0 | 1.0 | 0.00 | 0.00 | 0.00 | 15 | 1006.9 |
| 20260506050242 | 51 | 338 | 0.0 | 3.0 | 0.00 | 0.00 | 0.00 | 16 | 1007.0 |
| 20260506044651 | 51 | 338 | 0.0 | 3.0 | 0.00 | 0.00 | 0.00 | 21 | 1007.0 |
| 20260506044152 | 51 | 338 | 0.0 | 3.0 | 0.00 | 0.00 | 0.00 | 21 | 1007.0 |
| 20260506043634 | 51 | 72 | 0.0 | 2.0 | 0.00 | 0.00 | 0.00 | 22 | 1007.1 |
| 20260506043126 | 51 | 355 | 0.0 | 1.0 | 0.00 | 0.00 | 0.00 | 22 | 1007.0 |
| 20260506042620 | 51 | 355 | 0.0 | 2.0 | 0.00 | 0.00 | 0.00 | 23 | 1007.1 |
| 20260506042112 | 51 | 22 | 0.0 | 2.0 | 0.00 | 0.00 | 0.00 | 22 | 1007.0 |
| 20260506041604 | 51 | 333 | 0.0 | 1.0 | 0.00 | 0.00 | 0.00 | 21 | 1007.0 |
| 20260506041046 | 51 | 57 | 0.0 | 1.0 | 0.00 | 0.00 | 0.00 | 21 | 1007.1 |
| 20260506040547 | 51 | 89 | 0.0 | 1.0 | 0.00 | 0.00 | 0.00 | 22 | 1007.2 |
| 20260506040048 | 51 | 17 | 0.0 | 0.0 | 0.00 | 0.00 | 0.00 | 23 | 1007.1 |
| 20260506035532 | 51 | 161 | 0.0 | 1.0 | 0.00 | 0.00 | 0.00 | 23 | 1007.1 |
| 20260506035025 | 51 | 309 | 0.0 | 1.0 | 0.00 | 0.00 | 0.00 | 25 | 1007.1 |
| 20260506034741 | 51 | 59 | 0.0 | 0.0 | 0.00 | 0.00 | 0.00 | 25 | 1007.1 |
| 20260506034507 | 51 | 5 | 0.0 | 3.0 | 0.00 | 0.00 | 0.00 | 25 | 1007.1 |
| 20260506033500 | 51 | 311 | 0.0 | 3.0 | 0.00 | 0.00 | 0.00 | 26 | 1007.1 |
| 20260506032952 | 51 | 212 | 0.0 | 1.0 | 0.00 | 0.00 | 0.00 | 27 | 1007.2 |
| 20260506032700 | 51 | 331 | 0.0 | 1.0 | 0.00 | 0.00 | 0.00 | 26 | 1007.2 |
| 20260506032158 | 51 | 204 | 0.0 | 0.0 | 0.00 | 0.00 | 0.00 | 25 | 1007.2 |
| 20260506031411 | 51 | 223 | 0.0 | 0.0 | 0.00 | 0.00 | 0.00 | 26 | 1007.2 |
| 20260506031128 | 51 | 119 | 0.0 | 0.0 | 0.00 | 0.00 | 0.00 | 27 | 1007.2 |
| 20260506030411 | 51 | 153 | 0.0 | 2.0 | 0.00 | 0.00 | 0.00 | 27 | 1007.3 |
| 20260506030402 | 51 | 164 | 0.0 | 2.0 | 0.00 | 0.00 | 0.00 | 27 | 1007.4 |
| 20260506025340 | 51 | 355 | 0.0 | 3.0 | 0.00 | 0.00 | 0.00 | 27 | 1007.4 |
| 20260506024841 | 51 | 355 | 0.0 | 3.0 | 0.00 | 0.00 | 0.00 | 28 | 1007.4 |
| 20260506024336 | 51 | 329 | 0.0 | 2.0 | 0.00 | 0.00 | 0.00 | 29 | 1007.4 |